NKS746 KDTW-KDFW

Flight info

Callsign NKS746
Flight time 2h 24m
Altitude 34000
Route SNDRS3 BGHRT STL RZC FSM RRNET SEEVR4
Aircraft A321/M-SDE3FGHIRWY/LB1

Departure

Time 2026-05-04 05:26
Airport Detroit Metropolitan Wayne County Airport (KDTW)

Arrival

Time 2026-05-04 07:51
Airport Dallas Fort Worth International Airport (KDFW)
Time Latitude Longitude Altitude Speed Heading
2026-05-04 04:40 42.22520 -83.34965 646 ft 0 kts 108°
2026-05-04 05:01 42.22521 -83.34968 655 ft 2 kts 108°
2026-05-04 05:01 42.22529 -83.35001 648 ft 4 kts 108°
2026-05-04 05:01 42.22536 -83.35027 648 ft 4 kts 130°
2026-05-04 05:01 42.22552 -83.35035 649 ft 4 kts 207°
2026-05-04 05:02 42.22574 -83.35019 647 ft 2 kts 208°
2026-05-04 05:02 42.22575 -83.35018 647 ft 0 kts 208°
2026-05-04 05:06 42.22507 -83.35173 646 ft 8 kts 224°
2026-05-04 05:06 42.22454 -83.35212 646 ft 9 kts 208°
2026-05-04 05:06 42.22393 -83.35255 648 ft 10 kts 207°
2026-05-04 05:07 42.22327 -83.35308 646 ft 12 kts 213°
2026-05-04 05:07 42.22260 -83.35370 646 ft 11 kts 210°
2026-05-04 05:07 42.22197 -83.35417 646 ft 10 kts 208°
2026-05-04 05:09 42.21822 -83.35379 645 ft 10 kts 89°
2026-05-04 05:09 42.21824 -83.35283 645 ft 10 kts 88°
2026-05-04 05:10 42.21826 -83.35186 646 ft 10 kts 89°
2026-05-04 05:10 42.21828 -83.35091 646 ft 10 kts 88°
2026-05-04 05:10 42.21829 -83.34998 646 ft 10 kts 89°
2026-05-04 05:10 42.21832 -83.34905 646 ft 10 kts 86°
2026-05-04 05:11 42.21834 -83.34807 646 ft 11 kts 89°
2026-05-04 05:11 42.21835 -83.34708 646 ft 11 kts 89°
2026-05-04 05:11 42.21836 -83.34607 647 ft 11 kts 89°
2026-05-04 05:11 42.21849 -83.34513 647 ft 11 kts 53°
2026-05-04 05:12 42.21914 -83.34457 646 ft 12 kts 28°
2026-05-04 05:12 42.21986 -83.34405 646 ft 12 kts 28°
2026-05-04 05:12 42.22060 -83.34352 646 ft 12 kts 28°
2026-05-04 05:12 42.22136 -83.34295 646 ft 13 kts 28°
2026-05-04 05:13 42.22214 -83.34237 646 ft 13 kts 28°
2026-05-04 05:13 42.22293 -83.34180 646 ft 13 kts 27°
2026-05-04 05:13 42.22371 -83.34121 646 ft 13 kts 30°
2026-05-04 05:13 42.22450 -83.34063 646 ft 13 kts 28°
2026-05-04 05:14 42.22528 -83.34006 647 ft 13 kts 28°
2026-05-04 05:14 42.22608 -83.33948 646 ft 13 kts 29°
2026-05-04 05:14 42.22688 -83.33888 646 ft 13 kts 28°
2026-05-04 05:14 42.22770 -83.33826 647 ft 13 kts 30°
2026-05-04 05:15 42.22843 -83.33772 645 ft 11 kts 32°
2026-05-04 05:15 42.22850 -83.33694 644 ft 8 kts 115°
2026-05-04 05:15 42.22827 -83.33639 645 ft 5 kts 119°
2026-05-04 05:15 42.22809 -83.33592 645 ft 6 kts 118°
2026-05-04 05:16 42.22787 -83.33539 646 ft 6 kts 121°
2026-05-04 05:16 42.22757 -83.33513 646 ft 4 kts 170°
2026-05-04 05:16 42.22729 -83.33522 647 ft 4 kts 206°
2026-05-04 05:16 42.22703 -83.33543 647 ft 5 kts 211°
2026-05-04 05:17 42.22672 -83.33568 647 ft 6 kts 210°
2026-05-04 05:17 42.22634 -83.33597 648 ft 7 kts 209°
2026-05-04 05:17 42.22588 -83.33631 647 ft 8 kts 208°
2026-05-04 05:17 42.22528 -83.33673 647 ft 12 kts 206°
2026-05-04 05:18 42.22449 -83.33726 647 ft 13 kts 208°
2026-05-04 05:18 42.22369 -83.33788 648 ft 13 kts 211°
2026-05-04 05:18 42.22285 -83.33849 647 ft 14 kts 206°
2026-05-04 05:18 42.22198 -83.33910 647 ft 14 kts 208°
2026-05-04 05:19 42.22111 -83.33973 647 ft 12 kts 208°
2026-05-04 05:19 42.22056 -83.33943 647 ft 10 kts 119°
2026-05-04 05:19 42.22023 -83.33858 647 ft 11 kts 117°
2026-05-04 05:19 42.21987 -83.33767 647 ft 11 kts 120°
2026-05-04 05:20 42.21969 -83.33668 647 ft 12 kts 63°
2026-05-04 05:20 42.22022 -83.33592 647 ft 11 kts 76°
2026-05-04 05:20 42.22004 -83.33522 646 ft 0 kts 120°
2026-05-04 05:24 42.21999 -83.33511 646 ft 3 kts 120°
2026-05-04 05:24 42.21983 -83.33472 645 ft 6 kts 120°
2026-05-04 05:25 42.21951 -83.33428 644 ft 6 kts 169°
2026-05-04 05:25 42.21910 -83.33453 644 ft 7 kts 210°
2026-05-04 05:25 42.21863 -83.33488 644 ft 8 kts 208°
2026-05-04 05:25 42.21809 -83.33526 644 ft 13 kts 208°
2026-05-04 05:26 42.21529 -83.33731 645 ft 79 kts 208°
2026-05-04 05:26 42.20864 -83.34221 647 ft 137 kts 208°
2026-05-04 05:26 42.19908 -83.34932 815 ft 165 kts 208°
2026-05-04 05:26 42.18941 -83.35637 1672 ft 156 kts 209°
2026-05-04 05:27 42.17991 -83.36320 2256 ft 157 kts 212°
2026-05-04 05:28 42.07975 -83.40590 5109 ft 255 kts 207°
2026-05-04 05:29 42.06453 -83.41751 5687 ft 252 kts 222°
2026-05-04 05:29 42.05021 -83.43152 6331 ft 257 kts 222°
2026-05-04 05:29 42.03567 -83.44584 6966 ft 261 kts 222°
2026-05-04 05:29 42.02091 -83.46036 7598 ft 264 kts 221°
2026-05-04 05:31 41.91014 -83.57332 10714 ft 332 kts 221°
2026-05-04 05:31 41.89167 -83.59241 11238 ft 337 kts 221°
2026-05-04 05:32 41.87295 -83.61164 11814 ft 341 kts 221°
2026-05-04 05:32 41.85401 -83.63103 12396 ft 344 kts 221°
2026-05-04 05:32 41.83492 -83.65054 12970 ft 347 kts 221°
2026-05-04 05:33 41.79621 -83.69024 14072 ft 353 kts 222°
2026-05-04 05:33 41.77664 -83.71033 14616 ft 356 kts 222°
2026-05-04 05:33 41.75694 -83.73055 15170 ft 358 kts 222°
2026-05-04 05:33 41.73709 -83.75086 15722 ft 360 kts 222°
2026-05-04 05:34 41.71715 -83.77125 16268 ft 362 kts 222°
2026-05-04 05:34 41.69680 -83.79145 16807 ft 367 kts 217°
2026-05-04 05:34 41.67486 -83.80931 17356 ft 370 kts 216°
2026-05-04 05:34 41.65271 -83.82712 17903 ft 373 kts 216°
2026-05-04 05:35 41.63039 -83.84505 18414 ft 375 kts 216°
2026-05-04 05:35 41.60793 -83.86305 18857 ft 378 kts 216°
2026-05-04 05:35 41.58531 -83.88114 19324 ft 381 kts 216°
2026-05-04 05:35 41.56246 -83.89941 19785 ft 384 kts 216°
2026-05-04 05:36 41.53950 -83.91781 20230 ft 387 kts 216°
2026-05-04 05:36 41.51629 -83.93642 20646 ft 391 kts 216°
2026-05-04 05:36 41.50081 -83.94882 20936 ft 394 kts 216°
2026-05-04 05:36 41.47719 -83.96772 21376 ft 397 kts 216°
2026-05-04 05:37 41.45342 -83.98670 21801 ft 400 kts 216°
2026-05-04 05:37 41.42156 -84.01212 22354 ft 404 kts 216°
2026-05-04 05:37 41.39732 -84.03143 22755 ft 407 kts 216°
2026-05-04 05:38 41.35641 -84.06403 23457 ft 411 kts 216°
2026-05-04 05:38 41.33175 -84.08365 23795 ft 414 kts 216°
2026-05-04 05:38 41.30730 -84.10305 24131 ft 416 kts 216°
2026-05-04 05:38 41.28279 -84.12355 24468 ft 415 kts 221°
2026-05-04 05:39 41.26134 -84.14878 24792 ft 410 kts 232°
2026-05-04 05:39 41.23110 -84.21161 25427 ft 402 kts 252°
2026-05-04 05:39 41.22084 -84.24621 25753 ft 404 kts 252°
2026-05-04 05:40 41.20004 -84.31601 26374 ft 408 kts 252°
2026-05-04 05:40 41.18950 -84.35115 26696 ft 410 kts 252°
2026-05-04 05:40 41.17890 -84.38637 27005 ft 412 kts 252°
2026-05-04 05:41 41.16822 -84.42179 27319 ft 414 kts 252°
2026-05-04 05:41 41.15747 -84.45736 27620 ft 416 kts 252°
2026-05-04 05:41 41.14667 -84.49308 27920 ft 418 kts 252°
2026-05-04 05:41 41.13585 -84.52893 28212 ft 420 kts 252°
2026-05-04 05:42 41.12496 -84.56502 28503 ft 422 kts 252°
2026-05-04 05:42 41.11403 -84.60125 28793 ft 424 kts 252°
2026-05-04 05:42 41.10349 -84.63781 29075 ft 423 kts 257°
2026-05-04 05:42 41.09640 -84.67566 29333 ft 422 kts 262°
2026-05-04 05:43 41.09011 -84.71378 29629 ft 424 kts 261°
2026-05-04 05:43 41.08370 -84.75207 29946 ft 425 kts 261°
2026-05-04 05:43 41.07731 -84.78977 30302 ft 424 kts 261°
2026-05-04 05:45 41.03206 -85.05433 32645 ft 417 kts 262°
2026-05-04 05:45 41.02566 -85.09174 32931 ft 417 kts 262°
2026-05-04 05:47 40.98068 -85.35167 33898 ft 411 kts 262°
2026-05-04 05:47 40.96782 -85.42548 33897 ft 412 kts 262°
2026-05-04 05:48 40.95489 -85.49936 33897 ft 413 kts 262°
2026-05-04 05:48 40.94187 -85.57334 33898 ft 413 kts 262°
2026-05-04 05:49 40.92872 -85.64736 33900 ft 413 kts 262°
2026-05-04 05:49 40.91567 -85.72090 33904 ft 413 kts 262°
2026-05-04 05:51 40.87161 -86.01786 33892 ft 410 kts 266°
2026-05-04 05:52 40.86366 -86.09250 33891 ft 410 kts 266°
2026-05-04 05:52 40.85560 -86.16712 33891 ft 410 kts 266°
2026-05-04 05:54 40.82266 -86.46591 33880 ft 411 kts 265°
2026-05-04 05:55 40.81438 -86.54061 33873 ft 411 kts 265°
2026-05-04 05:55 40.80609 -86.61483 33864 ft 411 kts 265°
2026-05-04 05:56 40.79757 -86.69000 33864 ft 411 kts 265°
2026-05-04 05:56 40.78910 -86.76459 33864 ft 411 kts 265°
2026-05-04 05:57 40.78069 -86.83880 33867 ft 411 kts 265°
2026-05-04 05:57 40.77212 -86.91386 33872 ft 411 kts 265°
2026-05-04 05:58 40.76355 -86.98810 33858 ft 411 kts 265°
2026-05-04 05:58 40.75484 -87.06266 33861 ft 412 kts 265°
2026-05-04 05:59 40.74612 -87.13732 33857 ft 412 kts 265°
2026-05-04 05:59 40.73738 -87.21208 33862 ft 412 kts 265°
2026-05-04 06:00 40.72859 -87.28671 33859 ft 412 kts 265°
2026-05-04 06:00 40.71963 -87.36147 33841 ft 412 kts 264°
2026-05-04 06:01 40.71065 -87.43609 33857 ft 412 kts 264°
2026-05-04 06:03 40.67466 -87.73395 33843 ft 412 kts 264°
2026-05-04 06:05 40.61583 -87.98415 33862 ft 428 kts 233°
2026-05-04 06:05 40.57646 -88.04237 33859 ft 429 kts 233°
2026-05-04 06:06 40.53683 -88.10098 33851 ft 429 kts 233°
2026-05-04 06:06 40.49714 -88.15953 33876 ft 428 kts 233°
2026-05-04 06:07 40.45746 -88.21795 33851 ft 428 kts 233°
2026-05-04 06:07 40.41785 -88.27623 33878 ft 427 kts 233°
2026-05-04 06:08 40.37834 -88.33428 33887 ft 426 kts 233°
2026-05-04 06:08 40.33888 -88.39214 33887 ft 425 kts 233°
2026-05-04 06:09 40.29941 -88.44981 33885 ft 424 kts 233°
2026-05-04 06:11 40.14191 -88.67887 33897 ft 421 kts 234°
2026-05-04 06:13 39.98564 -88.90441 33877 ft 408 kts 236°
2026-05-04 06:14 39.85316 -89.09472 33871 ft 405 kts 236°
2026-05-04 06:15 39.81524 -89.14891 33880 ft 405 kts 236°
2026-05-04 06:15 39.77754 -89.20279 33869 ft 404 kts 237°
2026-05-04 06:16 39.73964 -89.25674 33889 ft 403 kts 237°
2026-05-04 06:16 39.70188 -89.31041 33898 ft 402 kts 237°
2026-05-04 06:17 39.66423 -89.36386 33901 ft 401 kts 237°
2026-05-04 06:17 39.62654 -89.41711 33899 ft 400 kts 237°
2026-05-04 06:18 39.58894 -89.47023 33897 ft 399 kts 237°
2026-05-04 06:20 39.43831 -89.68241 33871 ft 401 kts 237°
2026-05-04 06:21 39.35002 -89.80605 33841 ft 402 kts 237°
2026-05-04 06:22 39.31208 -89.85907 33845 ft 403 kts 236°
2026-05-04 06:25 39.04438 -90.23013 33860 ft 405 kts 235°
2026-05-04 06:26 39.00589 -90.28316 33879 ft 405 kts 235°
2026-05-04 06:26 38.96766 -90.33580 33896 ft 405 kts 235°
2026-05-04 06:27 38.87121 -90.46794 33847 ft 405 kts 234°
2026-05-04 06:28 38.83315 -90.52114 33866 ft 403 kts 236°
2026-05-04 06:28 38.79658 -90.57555 33891 ft 403 kts 237°
2026-05-04 06:29 38.76013 -90.63010 33886 ft 403 kts 236°
2026-05-04 06:29 38.72345 -90.68425 33879 ft 403 kts 236°
2026-05-04 06:30 38.68660 -90.73824 33869 ft 402 kts 236°
2026-05-04 06:30 38.64970 -90.79214 33837 ft 402 kts 236°
2026-05-04 06:31 38.61275 -90.84586 33831 ft 402 kts 236°
2026-05-04 06:31 38.57579 -90.89969 33841 ft 402 kts 236°
2026-05-04 06:33 38.42768 -91.11450 33874 ft 403 kts 235°
2026-05-04 06:34 38.39058 -91.16799 33894 ft 402 kts 235°
2026-05-04 06:34 38.35374 -91.22110 33908 ft 402 kts 235°
2026-05-04 06:36 38.20547 -91.43389 33903 ft 402 kts 235°
2026-05-04 06:37 38.16830 -91.48702 33883 ft 402 kts 234°
2026-05-04 06:37 38.13107 -91.54014 33875 ft 402 kts 234°
2026-05-04 06:38 38.09410 -91.59294 33887 ft 402 kts 234°
2026-05-04 06:40 37.94460 -91.80499 33914 ft 404 kts 234°
2026-05-04 06:40 37.90707 -91.85811 33884 ft 404 kts 234°
2026-05-04 06:41 37.86952 -91.91113 33878 ft 405 kts 234°
2026-05-04 06:41 37.83181 -91.96422 33878 ft 406 kts 234°
2026-05-04 06:42 37.79401 -92.01722 33884 ft 406 kts 234°
2026-05-04 06:44 37.64281 -92.22893 33884 ft 407 kts 234°
2026-05-04 06:44 37.60485 -92.28195 33898 ft 407 kts 234°
2026-05-04 06:45 37.56679 -92.33493 33901 ft 407 kts 234°
2026-05-04 06:45 37.52871 -92.38784 33933 ft 407 kts 234°
2026-05-04 06:46 37.49063 -92.44064 33931 ft 407 kts 234°
2026-05-04 06:46 37.45275 -92.49306 33939 ft 407 kts 234°
2026-05-04 06:48 37.30080 -92.70255 33934 ft 404 kts 233°
2026-05-04 06:50 37.14921 -92.91044 33917 ft 403 kts 233°
2026-05-04 06:51 37.11126 -92.96227 33928 ft 403 kts 233°
2026-05-04 06:51 37.07332 -93.01398 33935 ft 403 kts 233°
2026-05-04 06:52 37.03530 -93.06576 33921 ft 404 kts 233°
2026-05-04 06:52 36.99726 -93.11750 33924 ft 404 kts 232°
2026-05-04 06:53 36.95945 -93.16895 33933 ft 404 kts 232°
2026-05-04 06:53 36.92118 -93.22068 33920 ft 405 kts 232°
2026-05-04 06:54 36.88281 -93.27241 33934 ft 406 kts 232°
2026-05-04 06:54 36.84443 -93.32431 33951 ft 407 kts 232°
2026-05-04 06:55 36.80592 -93.37629 33965 ft 407 kts 232°
2026-05-04 06:55 36.76737 -93.42821 33971 ft 408 kts 232°
2026-05-04 06:57 36.61269 -93.63556 33955 ft 409 kts 232°
2026-05-04 06:58 36.57404 -93.68702 33962 ft 409 kts 232°
2026-05-04 06:58 36.53524 -93.73885 33959 ft 409 kts 232°
2026-05-04 06:59 36.49636 -93.79067 33976 ft 410 kts 232°
2026-05-04 06:59 36.45744 -93.84239 33983 ft 409 kts 232°
2026-05-04 07:01 36.30157 -94.04851 34005 ft 409 kts 232°
2026-05-04 07:02 36.26040 -94.09745 33968 ft 416 kts 220°
2026-05-04 07:02 36.20692 -94.12767 33969 ft 434 kts 199°
2026-05-04 07:03 36.14693 -94.13908 33940 ft 439 kts 195°
2026-05-04 07:03 36.08625 -94.14974 33980 ft 441 kts 195°
2026-05-04 07:04 36.02547 -94.16036 33984 ft 441 kts 195°
2026-05-04 07:04 35.96461 -94.17105 33991 ft 442 kts 195°
2026-05-04 07:05 35.90371 -94.18175 33995 ft 442 kts 195°
2026-05-04 07:05 35.85305 -94.19071 33969 ft 442 kts 195°
2026-05-04 07:06 35.76168 -94.20669 33963 ft 442 kts 195°
2026-05-04 07:07 35.70063 -94.21728 33968 ft 443 kts 195°
2026-05-04 07:09 35.45571 -94.25984 33998 ft 445 kts 195°
2026-05-04 07:09 35.39709 -94.27786 33974 ft 429 kts 212°
2026-05-04 07:10 35.34779 -94.31562 33989 ft 411 kts 229°
2026-05-04 07:12 35.17644 -94.50148 33994 ft 412 kts 229°
2026-05-04 07:12 35.13346 -94.54786 34011 ft 412 kts 229°
2026-05-04 07:13 35.09045 -94.59421 34008 ft 412 kts 230°
2026-05-04 07:13 35.04749 -94.64043 34017 ft 412 kts 230°
2026-05-04 07:14 34.94019 -94.75583 34001 ft 411 kts 230°
2026-05-04 07:15 34.89725 -94.80178 33969 ft 411 kts 230°
2026-05-04 07:15 34.85427 -94.84773 33983 ft 410 kts 230°
2026-05-04 07:16 34.81158 -94.89325 34005 ft 411 kts 230°
2026-05-04 07:16 34.76794 -94.93829 34010 ft 412 kts 229°
2026-05-04 07:17 34.72385 -94.98288 34001 ft 412 kts 229°
2026-05-04 07:17 34.67980 -95.02745 34012 ft 412 kts 230°
2026-05-04 07:18 34.63591 -95.07211 34020 ft 411 kts 230°
2026-05-04 07:18 34.59207 -95.11682 34010 ft 411 kts 230°
2026-05-04 07:19 34.54828 -95.16138 34019 ft 411 kts 230°
2026-05-04 07:19 34.50440 -95.20586 34029 ft 411 kts 230°
2026-05-04 07:20 34.46051 -95.25026 34034 ft 411 kts 230°
2026-05-04 07:20 34.41656 -95.29462 34037 ft 411 kts 230°
2026-05-04 07:22 34.26295 -95.44896 33401 ft 412 kts 230°
2026-05-04 07:22 34.24098 -95.47091 32962 ft 408 kts 230°
2026-05-04 07:23 34.21921 -95.49262 32504 ft 403 kts 229°
2026-05-04 07:23 34.19765 -95.51414 32037 ft 400 kts 229°
2026-05-04 07:23 34.17627 -95.53551 31541 ft 398 kts 229°
2026-05-04 07:23 34.15500 -95.55674 31053 ft 395 kts 229°
2026-05-04 07:24 34.13392 -95.57780 30572 ft 393 kts 228°
2026-05-04 07:24 34.11287 -95.59879 30083 ft 391 kts 228°
2026-05-04 07:24 34.09193 -95.61963 29565 ft 388 kts 227°
2026-05-04 07:24 34.07125 -95.64024 29098 ft 383 kts 228°
2026-05-04 07:25 34.05077 -95.66062 28662 ft 379 kts 227°
2026-05-04 07:26 33.91153 -95.79917 25596 ft 364 kts 226°
2026-05-04 07:27 33.89213 -95.81863 25182 ft 362 kts 225°
2026-05-04 07:27 33.87280 -95.83798 24757 ft 359 kts 225°
2026-05-04 07:27 33.85369 -95.85702 24348 ft 354 kts 224°
2026-05-04 07:27 33.83462 -95.87606 23930 ft 367 kts 224°
2026-05-04 07:28 33.81449 -95.89621 23438 ft 381 kts 223°
2026-05-04 07:28 33.79392 -95.91662 22938 ft 384 kts 223°
2026-05-04 07:28 33.77351 -95.93672 22465 ft 383 kts 223°
2026-05-04 07:28 33.75267 -95.95715 21984 ft 381 kts 223°
2026-05-04 07:29 33.73242 -95.97701 21511 ft 378 kts 223°
2026-05-04 07:29 33.71215 -95.99695 21033 ft 376 kts 222°
2026-05-04 07:29 33.69202 -96.01679 20563 ft 373 kts 222°
2026-05-04 07:29 33.67209 -96.03643 20265 ft 365 kts 222°
2026-05-04 07:30 33.65288 -96.05528 20043 ft 348 kts 222°
2026-05-04 07:30 33.63440 -96.07335 19498 ft 339 kts 222°
2026-05-04 07:30 33.61613 -96.09129 18787 ft 338 kts 222°
2026-05-04 07:30 33.59805 -96.10908 18353 ft 335 kts 223°
2026-05-04 07:31 33.58010 -96.12672 17904 ft 332 kts 222°
2026-05-04 07:31 33.56238 -96.14413 17475 ft 328 kts 222°
2026-05-04 07:33 33.44187 -96.26388 14658 ft 318 kts 230°
2026-05-04 07:33 33.42747 -96.28387 14247 ft 316 kts 231°
2026-05-04 07:33 33.41312 -96.30374 13834 ft 314 kts 231°
2026-05-04 07:33 33.39883 -96.32347 13385 ft 312 kts 230°
2026-05-04 07:34 33.38460 -96.34302 12974 ft 311 kts 230°
2026-05-04 07:34 33.37044 -96.36247 12565 ft 309 kts 230°
2026-05-04 07:34 33.35640 -96.38174 12223 ft 305 kts 230°
2026-05-04 07:34 33.34268 -96.40057 12092 ft 294 kts 230°
2026-05-04 07:35 33.33003 -96.41927 11861 ft 286 kts 238°
2026-05-04 07:35 33.32155 -96.44009 11644 ft 280 kts 252°
2026-05-04 07:35 33.31547 -96.46226 11429 ft 280 kts 251°
2026-05-04 07:35 33.30933 -96.48430 11132 ft 278 kts 251°
2026-05-04 07:36 33.30325 -96.50594 10931 ft 271 kts 251°
2026-05-04 07:36 33.29726 -96.52721 10547 ft 268 kts 251°
2026-05-04 07:38 33.28197 -96.67753 8369 ft 257 kts 265°
2026-05-04 07:38 33.28097 -96.69877 8061 ft 255 kts 265°
2026-05-04 07:38 33.27996 -96.71989 7754 ft 254 kts 265°
2026-05-04 07:38 33.27897 -96.74093 7440 ft 252 kts 265°
2026-05-04 07:39 33.27799 -96.76160 7270 ft 245 kts 265°
2026-05-04 07:39 33.27700 -96.78194 6940 ft 245 kts 265°
2026-05-04 07:39 33.27604 -96.80218 6627 ft 244 kts 265°
2026-05-04 07:39 33.27510 -96.82226 6373 ft 241 kts 265°
2026-05-04 07:40 33.27417 -96.84221 6075 ft 238 kts 265°
2026-05-04 07:40 33.27337 -96.86175 6007 ft 235 kts 265°
2026-05-04 07:40 33.27267 -96.88133 6011 ft 236 kts 265°
2026-05-04 07:40 33.27198 -96.90094 6005 ft 236 kts 265°
2026-05-04 07:41 33.27127 -96.92051 6006 ft 236 kts 265°
2026-05-04 07:41 33.27057 -96.94012 6008 ft 236 kts 265°
2026-05-04 07:41 33.26985 -96.95973 6010 ft 236 kts 265°
2026-05-04 07:41 33.26913 -96.97933 6011 ft 236 kts 265°
2026-05-04 07:42 33.26837 -96.99901 6016 ft 242 kts 265°
2026-05-04 07:42 33.26740 -97.01905 6004 ft 235 kts 258°
2026-05-04 07:42 33.26090 -97.03601 6010 ft 224 kts 227°
2026-05-04 07:42 33.24795 -97.04561 6017 ft 227 kts 197°
2026-05-04 07:43 33.23202 -97.04722 6016 ft 233 kts 181°
2026-05-04 07:43 33.21580 -97.04583 6016 ft 234 kts 179°
2026-05-04 07:43 33.19954 -97.04401 6013 ft 235 kts 179°
2026-05-04 07:43 33.18329 -97.04213 5751 ft 233 kts 180°
2026-05-04 07:44 33.16732 -97.03906 5450 ft 233 kts 170°
2026-05-04 07:44 33.15202 -97.03365 5223 ft 226 kts 168°
2026-05-04 07:44 33.13726 -97.02798 4969 ft 220 kts 167°
2026-05-04 07:44 33.12277 -97.02299 4719 ft 212 kts 175°
2026-05-04 07:45 33.10852 -97.02044 4502 ft 201 kts 180°
2026-05-04 07:45 33.09524 -97.01961 4452 ft 180 kts 186°
2026-05-04 07:45 33.08346 -97.02028 4350 ft 161 kts 189°
2026-05-04 07:45 33.07290 -97.02150 4282 ft 147 kts 193°
2026-05-04 07:46 33.06273 -97.02296 4148 ft 148 kts 191°
2026-05-04 07:46 33.05261 -97.02402 3909 ft 141 kts 191°
2026-05-04 07:46 33.04317 -97.02484 3588 ft 131 kts 190°
2026-05-04 07:46 33.03422 -97.02547 3285 ft 128 kts 188°
2026-05-04 07:47 33.02531 -97.02531 2987 ft 128 kts 185°
2026-05-04 07:47 33.01652 -97.02517 2725 ft 125 kts 187°
2026-05-04 07:47 33.00790 -97.02536 2465 ft 122 kts 187°
2026-05-04 07:49 32.95186 -97.02559 1337 ft 130 kts 181°
2026-05-04 07:49 32.94265 -97.02586 1185 ft 135 kts 181°
2026-05-04 07:49 32.93317 -97.02593 990 ft 137 kts 180°
2026-05-04 07:50 32.92366 -97.02596 776 ft 137 kts 180°
2026-05-04 07:50 32.91426 -97.02598 603 ft 137 kts 180°
2026-05-04 07:50 32.90563 -97.02601 577 ft 109 kts 180°
2026-05-04 07:50 32.89978 -97.02606 571 ft 59 kts 180°
2026-05-04 07:51 32.89719 -97.02614 569 ft 26 kts 188°
2026-05-04 07:51 32.89558 -97.02689 573 ft 23 kts 210°
2026-05-04 07:51 32.89441 -97.02773 573 ft 18 kts 212°
2026-05-04 07:51 32.89394 -97.02843 572 ft 9 kts 265°
2026-05-04 07:52 32.89394 -97.02874 573 ft 0 kts 272°
2026-05-04 07:52 32.89394 -97.02876 573 ft 1 kts 272°
2026-05-04 07:52 32.89395 -97.02904 574 ft 6 kts 271°
2026-05-04 07:53 32.89395 -97.02973 576 ft 11 kts 270°
2026-05-04 07:54 32.89240 -97.03318 583 ft 14 kts 180°
2026-05-04 07:55 32.89137 -97.03317 583 ft 16 kts 180°
2026-05-04 07:55 32.89025 -97.03317 582 ft 16 kts 179°
2026-05-04 07:55 32.88967 -97.03352 584 ft 9 kts 259°
2026-05-04 07:55 32.88956 -97.03424 584 ft 9 kts 244°
2026-05-04 07:56 32.88910 -97.03475 584 ft 9 kts 212°
2026-05-04 07:56 32.88903 -97.03525 584 ft 6 kts 304°
2026-05-04 07:56 32.88908 -97.03534 584 ft 0 kts 304°